Location: Blanot
(47.1713°N, 4.2340°E)
Time: 19:26:11
(UTC+00:00)

Cosmos 1666 - Pass Details

Date: 14 July 2020
Orbit: 497 x 521 km, 82.5° (Epoch: 14 August)

Event Time Altitude Azimuth Distance (km) Brightness Sun altitude
Exits shadow 02:48:04 14° 233° (SW) 1,463 4.3 -10.3°
Maximum altitude 02:50:36 28° 286° (WNW) 969 3.8 -10.0°
Drops below altitude 10° 02:53:55 10° 348° (NNW) 1,724 5.9 -9.6°
Sets 02:56:15 0° 0° (N) 2,610 7.1 -9.3°
